Terminal Aerodrome Forecast
Issued by NWS

Current Version | Previous Version | Text Only | Print | Product List | Glossary On
Versions: 1 2 3 4 5 6 7 8 9 10 11 12 13 14 15 16 17 18 19 20 21 22 23 24 25 26 27 28 29 30 31 32 33 34 35 36 37 38 39 40 41 42 43 44 45 46
000
FTUS42 KRAH 221731
TAFRWI
TAF
KRWI 221731Z 2218/2318 31005KT P6SM SCT050 SCT100 SCT250
     FM222100 VRB05KT P6SM VCSH BKN050 BKN250
     FM230600 00000KT 3SM BR BKN250
      TEMPO 2309/2312 1SM BR BKN015
     FM231500 03005KT P6SM SCT030=

USA.gov is the U.S. government's official web portal to all federal, state and local government web resources and services.